Regional Weather Roundup
Issued by NWS

Home | Current Version | Previous Version | Text Only | Print | Product List | Glossary On
Versions: 1 2 3 4 5 6 7 8 9 10 11 12 13 14 15 16 17 18 19 20 21 22 23 24 25 26 27
000
ASUS45 KPSR 270910
RWRAZ

ARIZONA HOURLY REGIONAL WEATHER ROUNDUP
NATIONAL WEATHER SERVICE PHOENIX AZ
200 AM MST MON FEB 27 2017

NOTE: FAIR INDICATES FEW OR NO CLOUDS BELOW 12,000 FEET WITH NO
SIGNIFICANT WEATHER AND/OR OBSTRUCTIONS TO VISIBILITY.

AZZ001>003-036-271000-
NORTHWEST ARIZONA

CITY           SKY/WX    TMP DP  RH WIND       PRES   REMARKS
BULLHEAD CITY  PTCLDY    54  37  54 SW7       29.83R
KINGMAN        MOCLDY    45  23  42 S13G18    29.84F
$$

AZZ004>008-015-016-018-271000-
NORTH CENTRAL ARIZONA

CITY           SKY/WX    TMP DP  RH WIND       PRES   REMARKS
GRAND CANYON   CLOUDY    32  26  78 SW20G26   29.86F WCI  20
WILLIAMS       MOCLDY    32  25  74 S20G33    29.86S WCI  20
PRESCOTT       CLOUDY    39  28  64 S12       29.90F WCI  32
FLAGSTAFF      CLOUDY    30  25  81 SW17      29.87S WCI  18
PAYSON         CLOUDY    41  28  60 S7        29.97S
PAGE           CLOUDY    45  21  38 VRB5      29.79R
$$

AZZ009>014-017-271000-
NORTHEAST ARIZONA

CITY           SKY/WX    TMP DP  RH WIND       PRES   REMARKS
WINSLOW        CLOUDY    34  24  67 E7        29.88F WCI  28
SAINT JOHNS    CLEAR     28  20  71 E7        29.89F WCI  21
WINDOW ROCK    CLOUDY    34  22  61 S5        29.89F WCI  30
SHOW LOW       MOCLDY    36  21  55 S21G26    29.92R WCI  24
$$

AZZ023-271000-
GREATER PHOENIX AREA

CITY           SKY/WX    TMP DP  RH WIND       PRES   REMARKS
PHOENIX        PTCLDY    52  38  58 E5        29.92S
BUCKEYE          N/A     48  39  71 E6        29.93R
LUKE AFB       CLOUDY    53  38  56 SW3       29.91R
DEER VALLEY    MOCLDY    50  38  63 E5        29.92S
SCOTTSDALE     CLEAR     49  36  61 CALM      29.94S
MESA-GATEWAY   CLEAR     45  36  70 SE7       29.95S
$$

AZZ027-028-271000-
SOUTHWEST MARICOPA COUNTY AND PINAL COUNTY

CITY           SKY/WX    TMP DP  RH WIND       PRES   REMARKS
CASA GRANDE    NOT AVBL
$$

AZZ503-504-507>509-271000-
SOUTHEAST ARIZONA

CITY           SKY/WX    TMP DP  RH WIND       PRES   REMARKS
TUCSON         CLEAR     48  32  53 SE3       29.99S
DAVIS-MONTHAN  CLEAR     44  32  63 CALM      29.98S
NOGALES        CLEAR     42  26  53 SE5       30.00F
SIERRA VISTA   CLEAR     47  23  38 S5        30.00S
DOUGLAS        CLEAR     48  26  42 CALM      30.00F
SAFFORD        CLEAR     36  26  67 SE5       29.95F WCI  32
$$

AZZ020-021-025-026-031-271000-
SOUTHWEST ARIZONA

CITY           SKY/WX    TMP DP  RH WIND       PRES   REMARKS
YUMA           CLEAR     51  39  63 SE3       29.91F
$$

CAZ031-033-041-043-047-048-061-271000-
SOUTHERN CALIFORNIA

CITY           SKY/WX    TMP DP  RH WIND       PRES   REMARKS
DOWNTOWN L.A.  CLOUDY    53  43  68 E5        29.96F
L.A. AIRPORT   MOCLDY    50  45  83 E8        29.96F
SAN DIEGO      LGT RAIN  54  50  86 E5        29.98F FOG
BURBANK        CLOUDY    50  40  68 SE8       29.95S
ONTARIO        MOCLDY    48  42  80 CALM      29.97S
RIVERSIDE      MOCLDY    47  43  86 CALM      29.98S
PALM SPRINGS   PTCLDY    50  42  74 SE5       29.87F
EL CENTRO NAS  CLEAR     51  33  50 NE6       29.91R
IMPERIAL       CLEAR     52  36  54 CALM      29.89S
BLYTHE         PTCLDY    51  40  65 S8        29.88R
NEEDLES        PTCLDY    54  38  54 CALM      29.84R
$$

NVZ020-UTZ003-271000-
SOUTHERN NEVADA-UTAH

CITY           SKY/WX    TMP DP  RH WIND       PRES   REMARKS
LAS VEGAS      MOCLDY    51  31  46 S10       29.75F
SALT LAKE CITY CLOUDY    40  22  48 S22G30    29.60R WCI  30
$$

NMZ009-TXZ055-271000-
NEW MEXICO-WEST TEXAS

CITY           SKY/WX    TMP DP  RH WIND       PRES   REMARKS
ALBUQUERQUE    CLEAR     32  22  66 SE8       29.93F WCI  25
EL PASO        PTCLDY    46  15  28 S5        29.94S
$$


........................KEY........................
SKY/WX - SKY CONDITION/WEATHER
TMP    - TEMPERATURE IN FAHRENHEIT
DP     - DEW POINT IN FAHRENHEIT
RH     - RELATIVE HUMIDITY IN PERCENT
WIND   - DIRECTION AND SPEED IN MILES PER HOUR (MPH)
VRB    - VARIABLE WIND DIRECTION
PRES   - MEAN SEA LEVEL PRESSURE IN INCHES OF MERCURY
         F - FALLING PRESSURE   R - RISING PRESSURE
         S - STEADY PRESSURE
VSB    - VISIBILITY IN MILES
HX     - HEAT INDEX IN FAHRENHEIT
WCI    - WIND CHILL INDEX IN FAHRENHEIT
TC     - TEMPERATURE IN CELSIUS WHICH IS ALSO KNOWN AS
         TEMPERATURE IN CENTIGRADE
AFB    - AIR FORCE BASE
         LUKE AFB IS LUKE AIR FORCE BASE
         DAVIS-MONTHAN IS DAVIS-MONTHAN AIR FORCE BASE
NAS    - NAVAL AIR STATION
         EL CENTRO NAS IS EL CENTRO NAVAL AIR STATION
N/A    - NOT AVAILABLE





USA.gov is the U.S. government's official web portal to all federal, state and local government web resources and services.